| time (UTC) | temp C | wind direction | speed KPH | gust KPH | rain 1hr cm | rain 24hr cm | rain mn cm | humidity % | barometer mb |
| 20260906234004 | 12 | 51 | 0.0 | 3.2 | 0.00 | 0.23 | 0.10 | 95 | 1015.8 |
| 20260906233003 | 12 | 51 | 0.0 | 4.8 | 0.00 | 0.23 | 0.10 | 95 | 1015.8 |
| 20260906231005 | 12 | 64 | 0.0 | 3.2 | 0.00 | 0.23 | 0.10 | 95 | 1015.9 |
| 20260906230004 | 12 | 64 | 0.0 | 4.8 | 0.00 | 0.25 | 0.10 | 96 | 1016.1 |
| 20260906225003 | 12 | 46 | 0.0 | 6.4 | 0.00 | 0.25 | 0.10 | 96 | 1016.1 |
| 20260906224005 | 12 | 65 | 0.0 | 6.4 | 0.00 | 0.25 | 0.10 | 97 | 1016.2 |
| 20260906223003 | 12 | 50 | 0.0 | 4.8 | 0.00 | 0.25 | 0.10 | 98 | 1016.1 |
| 20260906222003 | 12 | 50 | 0.0 | 4.8 | 0.00 | 0.25 | 0.10 | 98 | 1016.1 |
| 20260906221011 | 12 | 49 | 0.0 | 6.4 | 0.00 | 0.25 | 0.10 | 98 | 1016.2 |
| 20260906220003 | 12 | 57 | 0.0 | 4.8 | 0.00 | 0.33 | 0.10 | 98 | 1016.2 |
| 20260906215003 | 12 | 57 | 1.6 | 6.4 | 0.00 | 0.33 | 0.10 | 98 | 1016.3 |
| 20260906214003 | 11 | 64 | 0.0 | 4.8 | 0.00 | 0.33 | 0.10 | 98 | 1016.2 |
| 20260906213003 | 11 | 63 | 0.0 | 4.8 | 0.00 | 0.33 | 0.10 | 98 | 1016.2 |
| 20260906212003 | 11 | 63 | 0.0 | 3.2 | 0.00 | 0.33 | 0.10 | 98 | 1016.3 |
| 20260906211003 | 11 | 63 | 0.0 | 4.8 | 0.00 | 0.33 | 0.10 | 98 | 1016.3 |
| 20260906210004 | 11 | 63 | 0.0 | 1.6 | 0.00 | 0.33 | 0.10 | 98 | 1016.4 |
| 20260906205003 | 11 | 63 | 0.0 | 0.0 | 0.00 | 0.38 | 0.10 | 98 | 1016.4 |
| 20260906204003 | 11 | 63 | 0.0 | 0.0 | 0.03 | 0.38 | 0.10 | 98 | 1016.4 |
| 20260906203002 | 11 | 63 | 0.0 | 3.2 | 0.03 | 0.38 | 0.10 | 98 | 1016.5 |
| 20260906202002 | 11 | 63 | 0.0 | 1.6 | 0.03 | 0.38 | 0.10 | 98 | 1016.5 |
| 20260906201002 | 10 | 63 | 0.0 | 1.6 | 0.03 | 0.38 | 0.10 | 98 | 1016.7 |
| 20260906200002 | 10 | 63 | 0.0 | 4.8 | 0.03 | 0.48 | 0.10 | 98 | 1016.8 |
| 20260906195002 | 10 | 63 | 0.0 | 1.6 | 0.05 | 0.48 | 0.10 | 98 | 1016.8 |
| 20260906194002 | 10 | 63 | 0.0 | 3.2 | 0.03 | 0.46 | 0.08 | 98 | 1016.8 |
| 20260906193003 | 10 | 63 | 0.0 | 3.2 | 0.03 | 0.46 | 0.08 | 98 | 1016.8 |
| 20260906192003 | 10 | 63 | 0.0 | 3.2 | 0.03 | 0.46 | 0.08 | 98 | 1016.9 |
| 20260906191003 | 10 | 63 | 1.6 | 4.8 | 0.03 | 0.46 | 0.08 | 98 | 1017.0 |
| 20260906190003 | 10 | 63 | 1.6 | 6.4 | 0.05 | 0.48 | 0.08 | 98 | 1017.1 |
| 20260906185003 | 10 | 74 | 0.0 | 4.8 | 0.03 | 0.46 | 0.05 | 98 | 1017.2 |
| 20260906184002 | 10 | 76 | 0.0 | 4.8 | 0.03 | 0.46 | 0.05 | 98 | 1017.1 |
| 20260906183003 | 10 | 79 | 0.0 | 4.8 | 0.03 | 0.46 | 0.05 | 98 | 1017.1 |
| 20260906182003 | 10 | 80 | 1.6 | 6.4 | 0.03 | 0.46 | 0.05 | 98 | 1017.2 |
| 20260906181002 | 10 | 65 | 0.0 | 3.2 | 0.03 | 0.46 | 0.05 | 98 | 1017.3 |
| 20260906180003 | 9 | 65 | 0.0 | 8.0 | 0.00 | 0.43 | 0.05 | 98 | 1017.3 |
| 20260906175003 | 9 | 67 | 1.6 | 4.8 | 0.00 | 0.43 | 0.05 | 98 | 1017.4 |
| 20260906174002 | 9 | 227 | 0.0 | 4.8 | 0.00 | 0.43 | 0.05 | 98 | 1017.5 |
| 20260906173003 | 8 | 244 | 0.0 | 3.2 | 0.00 | 0.43 | 0.05 | 98 | 1017.6 |
| 20260906172002 | 8 | 244 | 0.0 | 1.6 | 0.00 | 0.43 | 0.05 | 98 | 1017.6 |
| 20260906171003 | 8 | 244 | 0.0 | 1.6 | 0.00 | 0.43 | 0.05 | 98 | 1017.7 |
| 20260906170002 | 8 | 244 | 0.0 | 0.0 | 0.00 | 0.43 | 0.05 | 98 | 1017.9 |
| 20260906165003 | 8 | 244 | 0.0 | 3.2 | 0.00 | 0.43 | 0.05 | 98 | 1018.0 |
| 20260906164003 | 8 | 244 | 0.0 | 0.0 | 0.00 | 0.43 | 0.05 | 98 | 1018.1 |
| 20260906163002 | 8 | 244 | 0.0 | 0.0 | 0.00 | 0.43 | 0.05 | 98 | 1018.0 |
| 20260906162001 | 8 | 244 | 0.0 | 0.0 | 0.00 | 0.43 | 0.05 | 98 | 1018.1 |
| 20260906161003 | 8 | 244 | 0.0 | 0.0 | 0.00 | 0.43 | 0.05 | 98 | 1018.3 |
| 20260906160002 | 8 | 244 | 0.0 | 0.0 | 0.00 | 0.43 | 0.05 | 98 | 1018.1 |
| 20260906155002 | 8 | 244 | 0.0 | 0.0 | 0.00 | 0.43 | 0.05 | 98 | 1018.0 |
| 20260906154002 | 7 | 244 | 0.0 | 0.0 | 0.00 | 0.43 | 0.05 | 98 | 1018.0 |
| 20260906153002 | 7 | 244 | 0.0 | 0.0 | 0.00 | 0.43 | 0.05 | 98 | 1018.0 |
| 20260906152002 | 7 | 244 | 0.0 | 0.0 | 0.00 | 0.43 | 0.05 | 98 | 1018.2 |
| 20260906151002 | 7 | 244 | 0.0 | 0.0 | 0.00 | 0.43 | 0.05 | 98 | 1018.2 |
| 20260906150003 | 7 | 244 | 0.0 | 0.0 | 0.00 | 0.43 | 0.05 | 98 | 1018.1 |
| 20260906145003 | 7 | 244 | 0.0 | 0.0 | 0.00 | 0.43 | 0.05 | 98 | 1018.3 |
| 20260906144003 | 7 | 244 | 0.0 | 0.0 | 0.00 | 0.43 | 0.05 | 98 | 1018.0 |
| 20260906143003 | 7 | 244 | 0.0 | 0.0 | 0.00 | 0.43 | 0.05 | 98 | 1018.0 |
| 20260906142003 | 7 | 244 | 0.0 | 0.0 | 0.00 | 0.43 | 0.05 | 98 | 1018.0 |
| 20260906141003 | 7 | 244 | 0.0 | 0.0 | 0.00 | 0.43 | 0.05 | 98 | 1018.1 |
| 20260906140003 | 7 | 244 | 0.0 | 0.0 | 0.03 | 0.43 | 0.05 | 97 | 1018.2 |
| 20260906135000 | 7 | 244 | 0.0 | 0.0 | 0.05 | 0.43 | 0.05 | 97 | 1018.2 |
| 20260906134002 | 7 | 244 | 0.0 | 0.0 | 0.05 | 0.43 | 0.05 | 98 | 1018.4 |
| 20260906133000 | 7 | 244 | 0.0 | 0.0 | 0.05 | 0.43 | 0.05 | 98 | 1018.4 |
| 20260906132002 | 7 | 244 | 0.0 | 0.0 | 0.05 | 0.43 | 0.05 | 98 | 1018.4 |
| 20260906131003 | 7 | 244 | 0.0 | 0.0 | 0.05 | 0.43 | 0.05 | 98 | 1018.5 |
| 20260906130001 | 7 | 244 | 0.0 | 0.0 | 0.03 | 0.43 | 0.03 | 98 | 1018.5 |
| 20260906125002 | 7 | 244 | 0.0 | 0.0 | 0.00 | 0.41 | 0.00 | 98 | 1018.5 |
| 20260906124002 | 7 | 244 | 0.0 | 0.0 | 0.00 | 0.41 | 0.00 | 98 | 1018.7 |
| 20260906123002 | 7 | 244 | 0.0 | 0.0 | 0.00 | 0.41 | 0.00 | 98 | 1018.7 |
| 20260906122002 | 7 | 244 | 0.0 | 0.0 | 0.00 | 0.41 | 0.00 | 98 | 1018.8 |
| 20260906121002 | 7 | 244 | 0.0 | 0.0 | 0.00 | 0.41 | 0.00 | 98 | 1018.9 |
| 20260906120002 | 7 | 244 | 0.0 | 0.0 | 0.00 | 0.41 | 0.00 | 98 | 1019.1 |
| 20260906115001 | 7 | 244 | 0.0 | 0.0 | 0.00 | 0.41 | 0.00 | 98 | 1019.5 |
| 20260906114002 | 7 | 244 | 0.0 | 0.0 | 0.00 | 0.41 | 0.00 | 98 | 1019.8 |
| 20260906113000 | 7 | 244 | 0.0 | 0.0 | 0.00 | 0.41 | 0.00 | 98 | 1019.6 |
| 20260906112002 | 6 | 244 | 0.0 | 0.0 | 0.00 | 0.41 | 0.00 | 97 | 1019.6 |
| 20260906111003 | 7 | 244 | 0.0 | 0.0 | 0.00 | 0.41 | 0.00 | 97 | 1019.8 |
| 20260906110002 | 7 | 244 | 0.0 | 0.0 | 0.00 | 0.41 | 0.00 | 97 | 1019.9 |
| 20260906104959 | 6 | 244 | 0.0 | 0.0 | 0.00 | 0.41 | 0.00 | 97 | 1020.0 |
| 20260906103959 | 6 | 244 | 0.0 | 0.0 | 0.00 | 0.41 | 0.00 | 97 | 1019.8 |
| 20260906102959 | 7 | 244 | 0.0 | 0.0 | 0.00 | 0.41 | 0.00 | 97 | 1019.9 |
| 20260906102000 | 7 | 244 | 0.0 | 0.0 | 0.00 | 0.41 | 0.00 | 97 | 1019.4 |
| 20260906101003 | 7 | 244 | 0.0 | 0.0 | 0.00 | 0.41 | 0.00 | 97 | 1019.7 |
| 20260906100002 | 7 | 244 | 0.0 | 0.0 | 0.00 | 0.41 | 0.00 | 97 | 1019.6 |
| 20260906095000 | 7 | 244 | 0.0 | 0.0 | 0.00 | 0.41 | 0.00 | 97 | 1019.6 |
| 20260906094001 | 7 | 244 | 0.0 | 0.0 | 0.00 | 0.41 | 0.00 | 97 | 1019.9 |
| 20260906093003 | 7 | 244 | 0.0 | 0.0 | 0.00 | 0.41 | 0.00 | 97 | 1020.0 |
| 20260906092002 | 7 | 244 | 0.0 | 0.0 | 0.00 | 0.41 | 0.00 | 97 | 1020.0 |
| 20260906091002 | 7 | 244 | 0.0 | 0.0 | 0.00 | 0.41 | 0.00 | 97 | 1020.1 |
| 20260906085959 | 7 | 244 | 0.0 | 0.0 | 0.00 | 0.41 | 0.00 | 96 | 1020.2 |
| 20260906084959 | 7 | 244 | 0.0 | 0.0 | 0.00 | 0.41 | 0.00 | 96 | 1020.3 |
| 20260906084000 | 7 | 244 | 0.0 | 0.0 | 0.00 | 0.41 | 0.00 | 97 | 1020.5 |
| 20260906083002 | 8 | 244 | 0.0 | 0.0 | 0.00 | 0.41 | 0.00 | 97 | 1020.6 |
| 20260906082000 | 8 | 244 | 0.0 | 0.0 | 0.00 | 0.41 | 0.00 | 97 | 1020.7 |
| 20260906081005 | 8 | 244 | 0.0 | 0.0 | 0.00 | 0.41 | 0.00 | 97 | 1020.8 |
| 20260906080000 | 8 | 244 | 0.0 | 0.0 | 0.00 | 0.41 | 0.00 | 97 | 1020.8 |
| 20260906075003 | 8 | 244 | 0.0 | 0.0 | 0.00 | 0.41 | 0.00 | 97 | 1020.8 |
| 20260906074001 | 8 | 244 | 0.0 | 0.0 | 0.00 | 0.41 | 0.00 | 97 | 1020.8 |
| 20260906072959 | 8 | 244 | 0.0 | 0.0 | 0.00 | 0.41 | 0.00 | 97 | 1020.9 |
| 20260906072003 | 8 | 244 | 0.0 | 0.0 | 0.00 | 0.41 | 0.00 | 97 | 1020.9 |
| 20260906071003 | 7 | 244 | 0.0 | 0.0 | 0.00 | 0.41 | 0.00 | 97 | 1021.0 |
| 20260906070005 | 7 | 244 | 0.0 | 0.0 | 0.00 | 0.41 | 0.00 | 97 | 1021.1 |
| 20260906065004 | 7 | 244 | 0.0 | 0.0 | 0.00 | 0.41 | 0.00 | 97 | 1021.0 |
| 20260906064004 | 7 | 244 | 0.0 | 0.0 | 0.00 | 0.41 | 0.00 | 97 | 1021.1 |
| 20260906063005 | 7 | 244 | 0.0 | 0.0 | 0.00 | 0.41 | 0.00 | 97 | 1021.1 |
| 20260906062003 | 7 | 244 | 0.0 | 0.0 | 0.00 | 0.41 | 0.00 | 97 | 1021.0 |
| 20260906061004 | 7 | 244 | 0.0 | 0.0 | 0.00 | 0.41 | 0.00 | 97 | 1021.0 |
| 20260906060003 | 7 | 244 | 0.0 | 0.0 | 0.00 | 0.41 | 0.41 | 97 | 1020.9 |
| 20260906055003 | 8 | 244 | 0.0 | 0.0 | 0.00 | 0.41 | 0.41 | 97 | 1020.9 |
| 20260906054003 | 8 | 244 | 0.0 | 0.0 | 0.03 | 0.41 | 0.41 | 97 | 1021.1 |
| 20260906053003 | 8 | 244 | 0.0 | 1.6 | 0.05 | 0.41 | 0.41 | 97 | 1021.2 |
| 20260906052003 | 8 | 244 | 0.0 | 0.0 | 0.05 | 0.41 | 0.41 | 97 | 1021.3 |
| 20260906051003 | 8 | 244 | 0.0 | 0.0 | 0.05 | 0.41 | 0.41 | 97 | 1021.3 |
| 20260906050003 | 8 | 244 | 0.0 | 0.0 | 0.05 | 0.41 | 0.41 | 97 | 1021.5 |
| 20260906045003 | 8 | 244 | 0.0 | 0.0 | 0.05 | 0.41 | 0.41 | 97 | 1021.5 |
| 20260906044004 | 8 | 244 | 0.0 | 0.0 | 0.03 | 0.38 | 0.38 | 97 | 1021.5 |
| 20260906043003 | 8 | 244 | 0.0 | 0.0 | 0.00 | 0.36 | 0.36 | 97 | 1021.3 |
| 20260906041008 | 8 | 244 | 0.0 | 0.0 | 0.00 | 0.36 | 0.36 | 97 | 1021.2 |
| 20260906040002 | 8 | 244 | 0.0 | 0.0 | 0.00 | 0.36 | 0.36 | 97 | 1021.2 |
| 20260906035003 | 7 | 244 | 0.0 | 0.0 | 0.00 | 0.36 | 0.36 | 97 | 1021.0 |
| 20260906034003 | 7 | 244 | 0.0 | 0.0 | 0.00 | 0.36 | 0.36 | 97 | 1021.0 |
| 20260906033003 | 7 | 244 | 0.0 | 0.0 | 0.00 | 0.36 | 0.36 | 96 | 1020.6 |
| 20260906032003 | 7 | 244 | 0.0 | 1.6 | 0.00 | 0.36 | 0.36 | 96 | 1020.5 |
| 20260906031003 | 7 | 244 | 0.0 | 0.0 | 0.00 | 0.36 | 0.36 | 96 | 1020.5 |
| 20260906030003 | 7 | 244 | 0.0 | 0.0 | 0.00 | 0.36 | 0.36 | 96 | 1020.6 |
| 20260906025010 | 8 | 244 | 0.0 | 0.0 | 0.00 | 0.36 | 0.36 | 96 | 1020.5 |
| 20260906024003 | 8 | 244 | 0.0 | 0.0 | 0.00 | 0.36 | 0.36 | 96 | 1020.3 |
| 20260906023004 | 8 | 244 | 0.0 | 3.2 | 0.00 | 0.36 | 0.36 | 96 | 1020.4 |
| 20260906022015 | 8 | 244 | 0.0 | 0.0 | 0.00 | 0.36 | 0.36 | 96 | 1020.5 |
| 20260906021003 | 8 | 244 | 0.0 | 0.0 | 0.00 | 0.36 | 0.36 | 96 | 1020.6 |
| 20260906020003 | 8 | 244 | 0.0 | 0.0 | 0.00 | 0.36 | 0.36 | 96 | 1020.8 |
| 20260906015004 | 8 | 244 | 0.0 | 0.0 | 0.03 | 0.36 | 0.36 | 96 | 1020.8 |
| 20260906014005 | 8 | 244 | 0.0 | 0.0 | 0.03 | 0.36 | 0.36 | 96 | 1020.8 |
| 20260906013004 | 8 | 244 | 0.0 | 0.0 | 0.03 | 0.36 | 0.36 | 96 | 1020.7 |
| 20260906012003 | 8 | 244 | 0.0 | 1.6 | 0.05 | 0.36 | 0.36 | 96 | 1020.5 |
| 20260906011006 | 8 | 244 | 0.0 | 0.0 | 0.05 | 0.36 | 0.36 | 96 | 1020.5 |
| 20260906010004 | 8 | 244 | 0.0 | 1.6 | 0.05 | 0.36 | 0.36 | 96 | 1020.4 |
| 20260906005005 | 8 | 244 | 0.0 | 1.6 | 0.05 | 0.33 | 0.33 | 96 | 1020.5 |
| 20260906004005 | 8 | 244 | 0.0 | 1.6 | 0.05 | 0.33 | 0.33 | 96 | 1020.3 |
| 20260906003005 | 8 | 244 | 0.0 | 0.0 | 0.05 | 0.33 | 0.33 | 96 | 1020.5 |
| 20260906002003 | 8 | 244 | 0.0 | 0.0 | 0.05 | 0.33 | 0.33 | 96 | 1020.5 |
| 20260906001007 | 8 | 244 | 0.0 | 3.2 | 0.05 | 0.33 | 0.33 | 96 | 1020.5 |
| 20260906000004 | 8 | 245 | 0.0 | 3.2 | 0.05 | 0.33 | 0.33 | 96 | 1020.3 |
| 20260905235003 | 8 | 245 | 0.0 | 1.6 | 0.03 | 0.30 | 0.30 | 96 | 1020.4 |